OSCAR 31

Satellite information

Favourite Embed

Satellite Type and Status

PAYLOADIN ORBIT

Key statistics

Satellite OSCAR 31 at a glance.

Uptime

13573

Days in orbit

Revolutions

≈ 13.4

Per day

Orbit

SSO

Sun Synchronous Orbit

Inclination

90.0

Latest

Satellite identification and parameters

Extended collection of information and parameters for OSCAR 31.

Object identification

Identified? True

Debris? False

Object name: OSCAR 31

International designator: 1988-074B

Object number (NORAD): 19420

Object ID (CCSDS): 19420

Country: UNITED STATES OF AMERICA (US)

Current information (Y/N): Y

RCS size: LARGE

Orbital parameters

Period: 107.257 minutes

Inclination: 90.0415 deg

SMA: 7477.848 km

Apoapsis: 1170.715 km

Periapsis: 1028.71 km

RAAN: 20.4014 deg

Eccentricy: 0.00949501

Argument of periapsis: 27.9512 deg

Mean anomaly: 343.3199 deg

Mean motion: 13.42572825 rev/day

Mean motion (dot): 0.00000121 rev/day2

B* drag term: 0.0001916956 1/REarth

Two-line elements (TLE)

Creation date: Oct. 23, 2025, 2:46 a.m.

Reference frame: TEME

Reference center: EARTH

Epoch: Oct. 22, 2025, 11:37 a.m. UTC

TLE line 0: 0 OSCAR 31

TLE line 1: 1 19420U 88074B 25295.48444041 .00000121 00000-0 19170-3 0 9990

TLE line 2: 2 19420 90.0415 20.4014 0094950 27.9512 343.3199 13.42572825819639

Live tracking on map

Real-time ground track for satellite OSCAR 31.

In-orbit conjunctions

There are no conjunctions computed for OSCAR 31, at the moment. Check back to stay up to date, as we update our databases every day.

Go to all conjunctions

Associated space launch

The Transit-O series of satellites that closely followed the design of Transit 5C-1 were also called “Oscars” (Oscar is the phonetic alphabet for “O”, i. e., operational). They were also called NNS (Navy Navigation Satellite) or shortened NavSat.

OSCAR 31 was lifted into orbit during the mission ‘Scout G-1 | Transit-O 25,31’, on board a Scout G-1 space rocket.

The launch took place on Aug. 25, 1988, 6:59 a.m. from Space Launch Complex 5.

For more information about the launch, click the button.

Launch to space Scout G-1 | Transit-O 25,31
Scout G-1 | Transit-O 25,31

Agency: N/A

Status: Launch Successful

Launch date: Aug. 25, 1988, 6:59 a.m. UTC

Rocket: Scout G-1

Launch pad: Space Launch Complex 5

Location: Vandenberg SFB, CA, USA

...

Latest news about this satellite

There are no fresh news available about this satellite. Check back as we update our databases every day.


Newsletter sign-up

Weekly statistics, charts and insights to help you stay on top of the space industry.